Sault Ste Marie, MI

5:00 PM EDT on July 22, 2017 (GMT -0400)
Sault Ste Marie Municipal / Sanderson Field

Weather History for KANJ - December, 2014

Change the Weather History Date:

Monday, December 1, 2014

  Actual Average Record
Temperature  
Mean Temperature 17 °F 28 °F  
Max Temperature 24 °F 34 °F 54 °F (1922)
Min Temperature 10 °F 22 °F -7 °F (1976)
Degree Days  
Heating Degree Days 48 37  
Month to date heating degree days 37  
Since 1 July heating degree days 2107 1969  
Moisture  
Dew Point 7 °F    
Average Humidity 71    
Maximum Humidity 84    
Minimum Humidity 58    
Precipitation  
Precipitation 0.10 in 0.10 in 0.96 in (1977)
Month to date precipitation 0.10 0.10  
Year to date precipitation 37.28 30.26  
Snow  
Snow 1.90 in 0.90 in 11.00 in (1985)
Month to date snowfall 1.9 0.9  
Since 1 July snowfall 67.3 17.6  
Snow Depth 11.00 in    
Sea Level Pressure  
Sea Level Pressure 30.46 in    
Wind  
Wind Speed 15 mph (West)    
Max Wind Speed 22 mph    
Max Gust Speed 38 mph    
Visibility 3 miles    
Events Fog , Snow    
T = Trace of Precipitation, MM = Missing Value Source: NWS Daily Summary

Daily Weather History Graph

Daily Weather History Graph

Search for Another Location

Airport or City:

Trip Planner

Search our weather history database for the weather conditions in past years. The results will help you decide how hot, cold, wet, or windy it might be!

Date:

Astronomy

Dec. 01, 2014 Rise Set
Actual Time 8:00 AM EST 4:52 PM EST
Civil Twilight 7:26 AM EST 5:26 PM EST
Nautical Twilight 6:48 AM EST 6:04 PM EST
Astronomical Twilight 6:12 AM EST 6:40 PM EST
Moon 2:13 PM EST (12/1) 2:18 AM EST (12/1)
Length of Visible Light 10h 00m
Length of Day
8h 51m
Waxing Gibbous, 75% of the Moon is Illuminated
Dec 1
Waxing Gibbous
Dec 6
Full
Dec 14
Last Quarter
Dec 21
New
Dec 28
First Quarter

Hourly Weather History & Observations

Time (EST) Temp. Windchill Dew Point Humidity Pressure Visibility Wind Dir Wind Speed Gust Speed Precip Events Conditions
12:55 AM 24.1 °F 12.5 °F 14.0 °F 65% 30.13 in 10.0 mi West 12.7 mph 24.2 mph 0.00 in Snow Light Snow
1:55 AM 23.0 °F 11.1 °F 12.0 °F 63% 30.14 in 10.0 mi West 12.7 mph 19.6 mph 0.00 in   Overcast
2:55 AM 19.0 °F 5.6 °F 12.9 °F 77% 30.17 in 10.0 mi WSW 13.8 mph - N/A   Mostly Cloudy
3:04 AM 19.0 °F 5.0 °F 12.9 °F 77% 30.14 in 10.0 mi WSW 15.0 mph 20.7 mph N/A   Mostly Cloudy
3:55 AM 17.1 °F 4.3 °F 10.9 °F 77% 30.18 in 10.0 mi WSW 11.5 mph - 0.00 in   Scattered Clouds
4:55 AM 16.0 °F 2.3 °F 9.0 °F 74% 30.19 in 10.0 mi WSW 12.7 mph - N/A   Clear
5:55 AM 14.0 °F -0.8 °F 8.1 °F 77% 30.20 in 10.0 mi SW 13.8 mph - N/A   Clear
6:55 AM 14.0 °F -0.8 °F 8.1 °F 77% 30.23 in 10.0 mi WSW 13.8 mph 21.9 mph N/A   Clear
7:55 AM 15.1 °F -1.6 °F 8.1 °F 74% 30.27 in 9.0 mi West 18.4 mph 31.1 mph N/A   Mostly Cloudy
8:03 AM 16.0 °F 0.6 °F 9.0 °F 74% 30.23 in 1.8 mi West 16.1 mph 33.4 mph 0.00 in Snow Light Snow
8:10 AM 16.0 °F 0.1 °F 10.9 °F 81% 30.24 in 0.5 mi West 17.3 mph 26.5 mph 0.00 in Snow Snow
8:55 AM 18.0 °F 2.2 °F 14.0 °F 84% 30.32 in 0.2 mi West 18.4 mph 27.6 mph 0.01 in Fog , Snow Snow
9:07 AM 18.0 °F 0.2 °F 10.0 °F 71% 30.29 in 0.5 mi WNW 24.2 mph 38.0 mph 0.00 in Snow Snow
9:36 AM 17.1 °F 2.5 °F 8.1 °F 68% 30.33 in 1.0 mi WNW 15.0 mph 28.8 mph 0.00 in Snow Light Snow
9:42 AM 17.1 °F 0.1 °F 6.1 °F 62% 30.34 in 0.8 mi WNW 20.7 mph 34.5 mph 0.00 in Snow Light Snow
9:55 AM 15.1 °F -2.9 °F 10.9 °F 84% 30.38 in 0.2 mi WNW 21.9 mph 36.8 mph 0.00 in Fog , Snow Heavy Snow
10:04 AM 14.0 °F -3.4 °F 10.9 °F 88% 30.36 in 0.2 mi NW 19.6 mph 36.8 mph 0.00 in Fog , Snow Heavy Snow
10:12 AM 14.0 °F -5.1 °F 10.0 °F 84% 30.36 in 0.2 mi NW 24.2 mph 31.1 mph 0.00 in Fog , Snow Heavy Snow
10:31 AM 14.0 °F -4.7 °F 6.1 °F 71% 30.39 in 0.2 mi NW 23.0 mph 35.7 mph 0.02 in Snow Heavy Snow
10:38 AM 14.0 °F -4.3 °F 7.0 °F 74% 30.39 in 0.2 mi NW 21.9 mph 35.7 mph 0.02 in Snow Heavy Snow
10:55 AM 14.0 °F -3.4 °F 5.0 °F 67% 30.45 in 0.5 mi WNW 19.6 mph 35.7 mph 0.02 in Snow Snow
11:08 AM 12.9 °F -6.5 °F 5.0 °F 71% 30.42 in 0.5 mi NW 24.2 mph 36.8 mph 0.00 in Snow Snow
11:43 AM 12.0 °F -6.0 °F 6.1 °F 77% 30.44 in 0.2 mi WNW 19.6 mph 33.4 mph 0.00 in Snow Heavy Snow
11:55 AM 12.0 °F -6.5 °F 7.0 °F 80% 30.49 in 0.2 mi WNW 20.7 mph 33.4 mph 0.00 in Snow Heavy Snow
12:15 PM 12.9 °F -3.4 °F 5.0 °F 71% 30.45 in 1.0 mi WNW 16.1 mph 25.3 mph 0.00 in Snow Light Snow
12:24 PM 12.0 °F -6.5 °F 5.0 °F 73% 30.46 in 0.2 mi WNW 20.7 mph 29.9 mph 0.00 in Snow Heavy Snow
12:35 PM 12.9 °F -4.4 °F 3.9 °F 67% 30.46 in 1.0 mi WNW 18.4 mph 27.6 mph 0.00 in Snow Light Snow
12:45 PM 12.9 °F -3.4 °F 5.0 °F 71% 30.47 in 0.8 mi NW 16.1 mph 29.9 mph 0.00 in Snow Light Snow
12:55 PM 12.9 °F -3.9 °F 5.0 °F 71% 30.51 in 0.5 mi WNW 17.3 mph 28.8 mph 0.00 in Snow Snow
1:09 PM 12.9 °F -5.3 °F 3.9 °F 67% 30.47 in 1.0 mi WNW 20.7 mph 28.8 mph 0.00 in Snow Light Snow
1:17 PM 12.0 °F -5.6 °F 6.1 °F 77% 30.48 in 0.2 mi WNW 18.4 mph 28.8 mph 0.00 in Snow Heavy Snow
1:44 PM 14.0 °F -2.0 °F 3.0 °F 62% 30.48 in 2.0 mi NW 16.1 mph 27.6 mph 0.00 in Snow Light Snow
1:51 PM 14.0 °F -5.1 °F 1.4 °F 57% 30.48 in 0.8 mi WNW 24.2 mph 34.5 mph 0.00 in Snow Light Snow
1:55 PM 14.0 °F -4.3 °F 1.9 °F 59% 30.52 in 0.5 mi WNW 21.9 mph 34.5 mph 0.00 in Snow Snow
2:02 PM 14.0 °F -4.7 °F -0.0 °F 54% 30.48 in 2.5 mi NW 23.0 mph 31.1 mph 0.00 in Snow Blowing Snow
2:09 PM 14.0 °F -4.3 °F 1.0 °F 56% 30.49 in 4.0 mi WNW 21.9 mph 32.2 mph 0.00 in Snow Blowing Snow
2:35 PM 14.0 °F -3.9 °F 1.9 °F 59% 30.50 in 2.0 mi NW 20.7 mph 33.4 mph 0.00 in Snow Light Snow
2:55 PM 14.0 °F -0.8 °F 3.0 °F 62% 30.56 in 6.0 mi NW 13.8 mph 29.9 mph 0.00 in   Overcast
3:16 PM 14.0 °F 0.5 °F 5.0 °F 67% 30.52 in 1.8 mi WNW 11.5 mph 23.0 mph 0.00 in Snow Light Snow
3:25 PM 14.0 °F -2.5 °F 7.0 °F 74% 30.53 in 0.5 mi NW 17.3 mph 25.3 mph 0.00 in Snow Snow
3:55 PM 14.0 °F -0.2 °F 8.1 °F 77% 30.58 in 0.8 mi WNW 12.7 mph 21.9 mph 0.01 in Snow Light Snow
4:02 PM 14.0 °F -1.4 °F 7.0 °F 74% 30.54 in 1.2 mi WNW 15.0 mph 21.9 mph 0.00 in Snow Light Snow
4:08 PM 15.1 °F 1.1 °F 6.1 °F 68% 30.55 in 2.0 mi NW 12.7 mph 21.9 mph 0.00 in Snow Light Snow
4:15 PM 14.0 °F 0.5 °F 6.1 °F 71% 30.55 in 1.8 mi NW 11.5 mph 19.6 mph 0.00 in Snow Light Snow
4:23 PM 14.0 °F 1.2 °F 6.1 °F 71% 30.55 in 2.5 mi NW 10.4 mph 19.6 mph 0.00 in Snow Light Snow
4:30 PM 15.1 °F 1.1 °F 5.0 °F 64% 30.56 in 9.0 mi WNW 12.7 mph 18.4 mph 0.00 in   Overcast
4:55 PM 15.1 °F -0.1 °F 3.0 °F 59% 30.61 in 3.0 mi WNW 15.0 mph 23.0 mph 0.00 in Snow Light Snow
4:58 PM 15.1 °F 0.5 °F 5.0 °F 64% 30.57 in 1.8 mi NW 13.8 mph 23.0 mph 0.00 in Snow Light Snow
5:09 PM 15.1 °F 2.5 °F 7.0 °F 70% 30.57 in 3.0 mi NW 10.4 mph 19.6 mph 0.00 in Snow Light Snow
5:34 PM 15.1 °F 1.1 °F 8.1 °F 74% 30.58 in 1.8 mi WNW 12.7 mph - 0.00 in Snow Light Snow
5:43 PM 15.1 °F 3.3 °F 9.0 °F 77% 30.58 in 3.0 mi NW 9.2 mph - 0.00 in Snow Light Snow
5:55 PM 15.1 °F 2.5 °F 7.0 °F 70% 30.63 in 5.0 mi WNW 10.4 mph 18.4 mph 0.00 in Snow Light Snow
6:55 PM 16.0 °F 4.4 °F 7.0 °F 68% 30.64 in 9.0 mi WNW 9.2 mph - 0.00 in   Overcast
7:50 PM 12.2 °F -0.2 °F 8.6 °F 85% 30.61 in 1.8 mi SW 9.2 mph - 0.00 in Snow Light Snow
7:55 PM 12.9 °F 0.7 °F 9.0 °F 84% 30.66 in 1.0 mi SW 9.2 mph - 0.00 in Snow Light Snow
8:16 PM 12.0 °F -0.4 °F 8.1 °F 84% 30.61 in 2.0 mi SSW 9.2 mph - 0.01 in Snow Light Snow
8:41 PM 12.0 °F -0.4 °F 8.1 °F 84% 30.61 in 1.8 mi SW 9.2 mph - 0.01 in Snow Light Snow
8:52 PM 12.2 °F 0.7 °F 8.6 °F 85% 30.61 in 1.2 mi SW 8.1 mph - 0.01 in Snow Light Snow
8:55 PM 12.0 °F 0.5 °F 8.1 °F 84% 30.66 in 1.5 mi SSW 8.1 mph - 0.01 in Snow Light Snow
9:11 PM 12.0 °F -0.4 °F 7.0 °F 80% 30.62 in 1.2 mi SSW 9.2 mph - 0.00 in Snow Light Snow
9:29 PM 10.9 °F -0.8 °F 6.1 °F 81% 30.63 in 2.0 mi SW 8.1 mph - 0.00 in Snow Light Snow
9:43 PM 10.9 °F 1.4 °F 6.1 °F 81% 30.62 in 4.0 mi South 5.8 mph - 0.00 in Snow Light Snow
9:50 PM 10.4 °F 2.2 °F 6.8 °F 85% 30.61 in 7.0 mi South 4.6 mph - 0.00 in Snow Light Snow
9:55 PM 10.9 °F 1.4 °F 6.1 °F 81% 30.66 in 7.0 mi South 5.8 mph - 0.00 in   Overcast
10:55 PM 10.0 °F -0.9 °F 5.0 °F 80% 30.65 in 7.0 mi South 6.9 mph - 0.00 in Snow Light Snow
11:55 PM 10.0 °F 1.8 °F 3.9 °F 76% 30.65 in 9.0 mi SSE 4.6 mph - 0.00 in   Overcast